owner,sensor,date,latitude,longitude,vertical_datum,wind_speed,wind_to_direction,wind_speed_of_gust,qcFlag 
TABS,ioos:station:wmo:42047:1,2011-03-01T00:00:00Z,27.8966,-93.5973,4.0,7.349319696,337.0981192,8.22,'11111222,11111222,11111222' 
TABS,ioos:station:wmo:42047:1,2011-03-01T00:30:00Z,27.8966,-93.5973,4.0,7.616488692,328.5845616,8.53,'11111222,11111222,11111222' 
TABS,ioos:station:wmo:42047:1,2011-03-01T01:00:00Z,27.8966,-93.5973,4.0,5.621103095,335.6233779,6.5,'11111222,11111222,11111222' 
TABS,ioos:station:wmo:42047:1,2011-03-01T01:30:00Z,27.8966,-93.5973,4.0,5.184293587,344.6768552,6.03,'11111222,11111222,11111222' 
TABS,ioos:station:wmo:42047:1,2011-03-01T02:00:00Z,27.8966,-93.5973,4.0,5.123602248,343.7932998,6.06,'11111222,11111222,11111222' 
TABS,ioos:station:wmo:42047:1,2011-03-01T02:30:00Z,27.8966,-93.5973,4.0,5.058319879,334.0933421,5.96,'11111222,11111222,11111222' 
TABS,ioos:station:wmo:42047:1,2011-03-01T03:00:00Z,27.8966,-93.5973,4.0,6.136489224,339.2908004,6.99,'11111222,11111222,11111222' 
TABS,ioos:station:wmo:42047:1,2011-03-01T03:30:00Z,27.8966,-93.5973,4.0,8.383370444,341.9322971,9.47,'11111222,11111222,11111222' 
TABS,ioos:station:wmo:42047:1,2011-03-01T04:00:00Z,27.8966,-93.5973,4.0,10.1872911,342.5787028,11.55,'11111222,11111222,11111222' 
TABS,ioos:station:wmo:42047:1,2011-03-01T04:30:00Z,27.8966,-93.5973,4.0,10.6169911,345.0996936,11.92,'11111222,11111222,11111222' 
TABS,ioos:station:wmo:42047:1,2011-03-01T05:00:00Z,27.8966,-93.5973,4.0,10.4688347,354.463476,12.03,'11111222,11111222,11111222' 
TABS,ioos:station:wmo:42047:1,2011-03-01T05:30:00Z,27.8966,-93.5973,4.0,10.78210091,3.668928783,11.93,'11111222,11111222,11111222' 
TABS,ioos:station:wmo:42047:1,2011-03-01T06:00:00Z,27.8966,-93.5973,4.0,11.91981963,13.09165199,13.59,'11111222,11111222,11111222' 
TABS,ioos:station:wmo:42047:1,2011-03-01T06:30:00Z,27.8966,-93.5973,4.0,11.8377067,15.08082543,13.16,'11111222,11111222,11111222' 
TABS,ioos:station:wmo:42047:1,2011-03-01T07:00:00Z,27.8966,-93.5973,4.0,12.02050332,15.73563467,13.55,'11111222,11111222,11111222' 
TABS,ioos:station:wmo:42047:1,2011-03-01T07:30:00Z,27.8966,-93.5973,4.0,11.73289819,19.93278398,12.9,'11111222,11111222,11111222' 
TABS,ioos:station:wmo:42047:1,2011-03-01T08:00:00Z,27.8966,-93.5973,4.0,11.56723822,22.19666476,13.1,'11111222,11111222,11111222' 
TABS,ioos:station:wmo:42047:1,2011-03-01T08:30:00Z,27.8966,-93.5973,4.0,11.61238132,17.90419518,13.14,'11111222,11111222,11111222' 
TABS,ioos:station:wmo:42047:1,2011-03-01T09:00:00Z,27.8966,-93.5973,4.0,11.52613118,21.69037845,12.87,'11111222,11111222,11111222' 
TABS,ioos:station:wmo:42047:1,2011-03-01T09:30:00Z,27.8966,-93.5973,4.0,11.35163865,22.86032187,12.53,'11111222,11111222,11111222' 
TABS,ioos:station:wmo:42047:1,2011-03-01T10:00:00Z,27.8966,-93.5973,4.0,10.80041666,26.2089096,12.55,'11111222,11111222,11111222' 
TABS,ioos:station:wmo:42047:1,2011-03-01T10:30:00Z,27.8966,-93.5973,4.0,10.67356079,27.93327429,11.95,'11111222,11111222,11111222' 
TABS,ioos:station:wmo:42047:1,2011-03-01T11:00:00Z,27.8966,-93.5973,4.0,10.56382506,25.93411534,12.38,'11111222,11111222,11111222' 
TABS,ioos:station:wmo:42047:1,2011-03-01T11:30:00Z,27.8966,-93.5973,4.0,10.18458148,32.28537204,11.54,'11111222,11111222,11111222' 
TABS,ioos:station:wmo:42047:1,2011-03-01T12:00:00Z,27.8966,-93.5973,4.0,9.854481214,30.62445014,11.33,'11111222,11111222,11111222' 
TABS,ioos:station:wmo:42047:1,2011-03-01T12:30:00Z,27.8966,-93.5973,4.0,9.263627799,33.99855422,10.38,'11111222,11111222,11111222' 
TABS,ioos:station:wmo:42047:1,2011-03-01T13:00:00Z,27.8966,-93.5973,4.0,9.545616795,31.02523683,10.59,'11111222,11111222,11111222' 
TABS,ioos:station:wmo:42047:1,2011-03-01T13:30:00Z,27.8966,-93.5973,4.0,9.688658318,29.28982527,10.65,'11111222,11111222,11111222' 
TABS,ioos:station:wmo:42047:1,2011-03-01T14:00:00Z,27.8966,-93.5973,4.0,9.552559866,31.21034745,10.67,'11111222,11111222,11111222' 
TABS,ioos:station:wmo:42047:1,2011-03-01T14:30:00Z,27.8966,-93.5973,4.0,8.87257009,33.36739294,10.79,'11111222,11111222,11111222' 
TABS,ioos:station:wmo:42047:1,2011-03-01T15:00:00Z,27.8966,-93.5973,4.0,8.595173064,37.8162197,9.83,'11111222,11111222,11111222' 
TABS,ioos:station:wmo:42047:1,2011-03-01T15:30:00Z,27.8966,-93.5973,4.0,8.578583799,34.02321184,9.91,'11111222,11111222,11111222' 
TABS,ioos:station:wmo:42047:1,2011-03-01T16:00:00Z,27.8966,-93.5973,4.0,7.868042959,36.68026679,9.19,'11111222,11111222,11111222' 
TABS,ioos:station:wmo:42047:1,2011-03-01T16:30:00Z,27.8966,-93.5973,4.0,8.122567328,37.54678957,9.19,'11111222,11111222,11111222' 
TABS,ioos:station:wmo:42047:1,2011-03-01T17:00:00Z,27.8966,-93.5973,4.0,8.312550752,31.06986117,9.62,'11111222,11111222,11111222' 
TABS,ioos:station:wmo:42047:1,2011-03-01T17:30:00Z,27.8966,-93.5973,4.0,8.128037894,29.56099004,9.17,'11111222,11111222,11111222' 
TABS,ioos:station:wmo:42047:1,2011-03-01T18:00:00Z,27.8966,-93.5973,4.0,7.374727114,31.4697941,8.3,'11111222,11111222,11111222' 
TABS,ioos:station:wmo:42047:1,2011-03-01T18:30:00Z,27.8966,-93.5973,4.0,7.644108843,33.14926936,9.26,'11111222,11111222,11111222' 
TABS,ioos:station:wmo:42047:1,2011-03-01T19:00:00Z,27.8966,-93.5973,4.0,6.667368296,40.49845932,7.6,'11111222,11111222,11111222' 
TABS,ioos:station:wmo:42047:1,2011-03-01T19:30:00Z,27.8966,-93.5973,4.0,6.477669334,34.94100458,7.39,'11111222,11111222,11111222' 
TABS,ioos:station:wmo:42047:1,2011-03-01T20:00:00Z,27.8966,-93.5973,4.0,6.53012251,37.22056531,7.77,'11111222,11111222,11111222' 
TABS,ioos:station:wmo:42047:1,2011-03-01T20:30:00Z,27.8966,-93.5973,4.0,6.70398389,27.06165966,7.88,'11111222,11111222,11111222' 
TABS,ioos:station:wmo:42047:1,2011-03-01T21:00:00Z,27.8966,-93.5973,4.0,6.390070422,30.77894727,7.37,'11111222,11111222,11111222' 
TABS,ioos:station:wmo:42047:1,2011-03-01T21:30:00Z,27.8966,-93.5973,4.0,6.29114457,37.96254906,7.09,'11111222,11111222,11111222' 
TABS,ioos:station:wmo:42047:1,2011-03-01T22:00:00Z,27.8966,-93.5973,4.0,5.478266149,37.43438093,6.92,'11111222,11111222,11111222' 
TABS,ioos:station:wmo:42047:1,2011-03-01T22:30:00Z,27.8966,-93.5973,4.0,4.919562989,38.3139188,6.64,'11111222,11111222,11111222' 
TABS,ioos:station:wmo:42047:1,2011-03-01T23:00:00Z,27.8966,-93.5973,4.0,4.65966737,40.56097832,5.75,'11111222,11111222,11111222' 
TABS,ioos:station:wmo:42047:1,2011-03-01T23:30:00Z,27.8966,-93.5973,4.0,4.8953243,56.66666906,5.86,'11111222,11111222,11111222' 
TABS,ioos:station:wmo:42047:1,2011-03-02T00:00:00Z,27.8966,-93.5973,4.0,4.485398533,60.92022888,6.18,'11111222,11111222,11111222' 
TABS,ioos:station:wmo:42047:1,2011-03-02T00:30:00Z,27.8966,-93.5973,4.0,4.570525134,63.49065228,6.17,'11111222,11111222,11111222' 
TABS,ioos:station:wmo:42047:1,2011-03-02T01:00:00Z,27.8966,-93.5973,4.0,4.565084884,61.18885271,5.89,'11111222,11111222,11111222' 
TABS,ioos:station:wmo:42047:1,2011-03-02T01:30:00Z,27.8966,-93.5973,4.0,4.503476435,63.20700177,5.93,'11111222,11111222,11111222' 
TABS,ioos:station:wmo:42047:1,2011-03-02T02:00:00Z,27.8966,-93.5973,4.0,4.730010571,59.36828076,6.12,'11111222,11111222,11111222' 
TABS,ioos:station:wmo:42047:1,2011-03-02T02:30:00Z,27.8966,-93.5973,4.0,4.102097025,66.43423832,5.35,'11111222,11111222,11111222' 
TABS,ioos:station:wmo:42047:1,2011-03-02T03:00:00Z,27.8966,-93.5973,4.0,4.096644969,70.01651929,4.82,'11111222,11111222,11111222' 
TABS,ioos:station:wmo:42047:1,2011-03-02T03:30:00Z,27.8966,-93.5973,4.0,4.341946568,54.84548366,5.42,'11111222,11111222,11111222' 
TABS,ioos:station:wmo:42047:1,2011-03-02T04:00:00Z,27.8966,-93.5973,4.0,4.34099067,66.80104282,5.41,'11111222,11111222,11111222' 
TABS,ioos:station:wmo:42047:1,2011-03-02T04:30:00Z,27.8966,-93.5973,4.0,4.663089105,69.93253892,5.83,'11111222,11111222,11111222' 
TABS,ioos:station:wmo:42047:1,2011-03-02T05:00:00Z,27.8966,-93.5973,4.0,5.643447528,77.51484882,6.61,'11111222,11111222,11111222' 
TABS,ioos:station:wmo:42047:1,2011-03-02T05:30:00Z,27.8966,-93.5973,4.0,5.593004559,80.11624274,6.45,'11111222,11111222,11111222' 
TABS,ioos:station:wmo:42047:1,2011-03-02T06:00:00Z,27.8966,-93.5973,4.0,5.448614503,85.26214681,6.65,'11111222,11111222,11111222' 
TABS,ioos:station:wmo:42047:1,2011-03-02T06:30:00Z,27.8966,-93.5973,4.0,5.560512566,96.9209311,6.38,'11111222,11111222,11111222' 
TABS,ioos:station:wmo:42047:1,2011-03-02T07:00:00Z,27.8966,-93.5973,4.0,5.335850448,104.3231074,6.14,'11111222,11111222,11111222' 
TABS,ioos:station:wmo:42047:1,2011-03-02T07:30:00Z,27.8966,-93.5973,4.0,4.947736856,105.8344333,5.91,'11111222,11111222,11111222' 
TABS,ioos:station:wmo:42047:1,2011-03-02T08:00:00Z,27.8966,-93.5973,4.0,4.260950598,91.21071226,5.15,'11111222,11111222,11111222' 
TABS,ioos:station:wmo:42047:1,2011-03-02T08:30:00Z,27.8966,-93.5973,4.0,3.799184123,82.89328512,5.18,'11111222,11111222,11111222' 
TABS,ioos:station:wmo:42047:1,2011-03-02T09:00:00Z,27.8966,-93.5973,4.0,3.960113635,102.2467251,5.0,'11111222,11111222,11111222' 
TABS,ioos:station:wmo:42047:1,2011-03-02T09:30:00Z,27.8966,-93.5973,4.0,3.862641583,74.38022347,5.52,'11111222,11111222,11111222' 
TABS,ioos:station:wmo:42047:1,2011-03-02T10:00:00Z,27.8966,-93.5973,4.0,3.852298015,79.6814538,5.13,'11111222,11111222,11111222' 
TABS,ioos:station:wmo:42047:1,2011-03-02T10:30:00Z,27.8966,-93.5973,4.0,4.522167622,71.96533569,5.55,'11111222,11111222,11111222' 
TABS,ioos:station:wmo:42047:1,2011-03-02T11:00:00Z,27.8966,-93.5973,4.0,4.297918101,81.43587459,5.42,'11111222,11111222,11111222' 
TABS,ioos:station:wmo:42047:1,2011-03-02T11:30:00Z,27.8966,-93.5973,4.0,4.272001873,94.29625138,5.46,'11111222,11111222,11111222' 
TABS,ioos:station:wmo:42047:1,2011-03-02T12:00:00Z,27.8966,-93.5973,4.0,4.178672038,70.13366418,4.96,'11111222,11111222,11111222' 
TABS,ioos:station:wmo:42047:1,2011-03-02T12:30:00Z,27.8966,-93.5973,4.0,3.812413933,80.48786492,4.81,'11111222,11111222,11111222' 
TABS,ioos:station:wmo:42047:1,2011-03-02T13:00:00Z,27.8966,-93.5973,4.0,3.95701908,82.15617635,4.86,'11111222,11111222,11111222' 
TABS,ioos:station:wmo:42047:1,2011-03-02T13:30:00Z,27.8966,-93.5973,4.0,3.628911683,81.60155235,5.23,'11111222,11111222,11111222' 
TABS,ioos:station:wmo:42047:1,2011-03-02T14:00:00Z,27.8966,-93.5973,4.0,3.217530109,82.49909288,4.13,'11111222,11111222,11111222' 
TABS,ioos:station:wmo:42047:1,2011-03-02T14:30:00Z,27.8966,-93.5973,4.0,3.370534082,88.97958633,4.04,'11111222,11111222,11111222' 
TABS,ioos:station:wmo:42047:1,2011-03-02T15:00:00Z,27.8966,-93.5973,4.0,3.13078265,88.71842038,4.44,'11111222,11111222,11111222' 
TABS,ioos:station:wmo:42047:1,2011-03-02T15:30:00Z,27.8966,-93.5973,4.0,3.090906016,106.7351363,3.58,'11111222,11111222,11111222' 
TABS,ioos:station:wmo:42047:1,2011-03-02T16:00:00Z,27.8966,-93.5973,4.0,2.517002185,99.83695242,3.1,'11111222,11111222,11111222' 
TABS,ioos:station:wmo:42047:1,2011-03-02T16:30:00Z,27.8966,-93.5973,4.0,2.825614977,73.55286155,3.71,'11111222,11111222,11111222' 
TABS,ioos:station:wmo:42047:1,2011-03-02T17:00:00Z,27.8966,-93.5973,4.0,3.088462401,67.33695585,4.11,'11111222,11111222,11111222' 
TABS,ioos:station:wmo:42047:1,2011-03-02T17:30:00Z,27.8966,-93.5973,4.0,3.279817068,83.69798508,4.15,'11111222,11111222,11111222' 
TABS,ioos:station:wmo:42047:1,2011-03-02T18:00:00Z,27.8966,-93.5973,4.0,3.208769234,75.74683264,3.84,'11111222,11111222,11111222' 
TABS,ioos:station:wmo:42047:1,2011-03-02T18:30:00Z,27.8966,-93.5973,4.0,2.851105049,81.52845426,3.37,'11111222,11111222,11111222' 
TABS,ioos:station:wmo:42047:1,2011-03-02T19:00:00Z,27.8966,-93.5973,4.0,2.777210831,54.82172629,3.36,'11111222,11111222,11111222' 
TABS,ioos:station:wmo:42047:1,2011-03-02T19:30:00Z,27.8966,-93.5973,4.0,3.032655602,60.1375985,3.53,'11111222,11111222,11111222' 
TABS,ioos:station:wmo:42047:1,2011-03-02T20:00:00Z,27.8966,-93.5973,4.0,3.262207841,55.23785804,4.08,'11111222,11111222,11111222' 
TABS,ioos:station:wmo:42047:1,2011-03-02T20:30:00Z,27.8966,-93.5973,4.0,3.235938813,51.1462956,4.12,'11111222,11111222,11111222' 
TABS,ioos:station:wmo:42047:1,2011-03-02T21:00:00Z,27.8966,-93.5973,4.0,4.783053418,47.03299523,5.93,'11111222,11111222,11111222' 
TABS,ioos:station:wmo:42047:1,2011-03-02T21:30:00Z,27.8966,-93.5973,4.0,5.390009276,46.50316185,6.18,'11111222,11111222,11111222' 
TABS,ioos:station:wmo:42047:1,2011-03-02T22:00:00Z,27.8966,-93.5973,4.0,5.154852083,45.23546753,6.09,'11111222,11111222,11111222' 
TABS,ioos:station:wmo:42047:1,2011-03-02T22:30:00Z,27.8966,-93.5973,4.0,5.067237906,54.39626333,5.75,'11111222,11111222,11111222' 
TABS,ioos:station:wmo:42047:1,2011-03-02T23:00:00Z,27.8966,-93.5973,4.0,5.317527621,47.9724203,5.8,'11111222,11111222,11111222' 
TABS,ioos:station:wmo:42047:1,2011-03-02T23:30:00Z,27.8966,-93.5973,4.0,5.090540246,59.80802672,5.54,'11111222,11111222,11111222' 
TABS,ioos:station:wmo:42047:1,2011-03-03T00:00:00Z,27.8966,-93.5973,4.0,5.287655435,62.02914126,6.24,'11111222,11111222,11111222' 
TABS,ioos:station:wmo:42047:1,2011-03-03T00:30:00Z,27.8966,-93.5973,4.0,5.287958018,66.24617311,6.14,'11111222,11111222,11111222' 
TABS,ioos:station:wmo:42047:1,2011-03-03T01:00:00Z,27.8966,-93.5973,4.0,5.022449602,80.25596058,5.98,'11111222,11111222,11111222' 
TABS,ioos:station:wmo:42047:1,2011-03-03T01:30:00Z,27.8966,-93.5973,4.0,5.243910754,81.77678442,6.3,'11111222,11111222,11111222' 
TABS,ioos:station:wmo:42047:1,2011-03-03T02:00:00Z,27.8966,-93.5973,4.0,5.095772758,65.04387755,5.97,'11111222,11111222,11111222' 
TABS,ioos:station:wmo:42047:1,2011-03-03T02:30:00Z,27.8966,-93.5973,4.0,4.935392588,61.56522349,5.71,'11111222,11111222,11111222' 
TABS,ioos:station:wmo:42047:1,2011-03-03T03:00:00Z,27.8966,-93.5973,4.0,5.467083317,69.77476695,6.19,'11111222,11111222,11111222' 
TABS,ioos:station:wmo:42047:1,2011-03-03T03:30:00Z,27.8966,-93.5973,4.0,4.443894688,81.06719032,4.99,'11111222,11111222,11111222' 
TABS,ioos:station:wmo:42047:1,2011-03-03T04:00:00Z,27.8966,-93.5973,4.0,4.74802064,81.03324692,5.74,'11111222,11111222,11111222' 
TABS,ioos:station:wmo:42047:1,2011-03-03T04:30:00Z,27.8966,-93.5973,4.0,4.741951075,81.51065505,5.36,'11111222,11111222,11111222' 
TABS,ioos:station:wmo:42047:1,2011-03-03T05:00:00Z,27.8966,-93.5973,4.0,4.981214711,72.47405169,5.62,'11111222,11111222,11111222' 
TABS,ioos:station:wmo:42047:1,2011-03-03T05:30:00Z,27.8966,-93.5973,4.0,4.594975517,65.16353439,5.38,'11111222,11111222,11111222' 
TABS,ioos:station:wmo:42047:1,2011-03-03T06:00:00Z,27.8966,-93.5973,4.0,3.269281267,62.88594808,3.94,'11111222,11111222,11111222' 
TABS,ioos:station:wmo:42047:1,2011-03-03T06:30:00Z,27.8966,-93.5973,4.0,3.840052083,90.29883304,4.5,'11111222,11111222,11111222' 
TABS,ioos:station:wmo:42047:1,2011-03-03T07:00:00Z,27.8966,-93.5973,4.0,4.756353645,81.17101073,5.99,'11111222,11111222,11111222' 
TABS,ioos:station:wmo:42047:1,2011-03-03T07:30:00Z,27.8966,-93.5973,4.0,4.903549735,95.61798837,5.47,'11111222,11111222,11111222' 
TABS,ioos:station:wmo:42047:1,2011-03-03T08:00:00Z,27.8966,-93.5973,4.0,4.870092402,89.64663296,5.39,'11111222,11111222,11111222' 
TABS,ioos:station:wmo:42047:1,2011-03-03T08:30:00Z,27.8966,-93.5973,4.0,4.884802964,85.53791191,5.8,'11111222,11111222,11111222' 
TABS,ioos:station:wmo:42047:1,2011-03-03T09:00:00Z,27.8966,-93.5973,4.0,5.136088005,87.20960087,5.89,'11111222,11111222,11111222' 
TABS,ioos:station:wmo:42047:1,2011-03-03T09:30:00Z,27.8966,-93.5973,4.0,4.736084881,85.27613484,5.32,'11111222,11111222,11111222' 
TABS,ioos:station:wmo:42047:1,2011-03-03T10:00:00Z,27.8966,-93.5973,4.0,5.105643936,87.30530109,5.58,'11111222,11111222,11111222' 
TABS,ioos:station:wmo:42047:1,2011-03-03T10:30:00Z,27.8966,-93.5973,4.0,4.450123594,86.13412695,5.24,'11111222,11111222,11111222' 
TABS,ioos:station:wmo:42047:1,2011-03-03T11:00:00Z,27.8966,-93.5973,4.0,3.965614706,83.48389391,4.65,'11111222,11111222,11111222' 
TABS,ioos:station:wmo:42047:1,2011-03-03T11:30:00Z,27.8966,-93.5973,4.0,5.114078607,82.4715849,5.52,'11111222,11111222,11111222' 
TABS,ioos:station:wmo:42047:1,2011-03-03T12:00:00Z,27.8966,-93.5973,4.0,4.91,90.00042092,5.63,'11111222,11111222,11111222' 
TABS,ioos:station:wmo:42047:1,2011-03-03T12:30:00Z,27.8966,-93.5973,4.0,5.261938806,84.76572967,6.01,'11111222,11111222,11111222' 
TABS,ioos:station:wmo:42047:1,2011-03-03T13:00:00Z,27.8966,-93.5973,4.0,5.106172735,73.268131,5.8,'11111222,11111222,11111222' 
TABS,ioos:station:wmo:42047:1,2011-03-03T13:30:00Z,27.8966,-93.5973,4.0,6.2310593,76.54321893,6.95,'11111222,11111222,11111222' 
TABS,ioos:station:wmo:42047:1,2011-03-03T14:00:00Z,27.8966,-93.5973,4.0,6.097384685,75.75825364,7.17,'11111222,11111222,11111222' 
TABS,ioos:station:wmo:42047:1,2011-03-03T14:30:00Z,27.8966,-93.5973,4.0,6.360440236,74.87090654,7.36,'11111222,11111222,11111222' 
TABS,ioos:station:wmo:42047:1,2011-03-03T15:00:00Z,27.8966,-93.5973,4.0,6.461493635,74.28564295,7.09,'11111222,11111222,11111222' 
TABS,ioos:station:wmo:42047:1,2011-03-03T15:30:00Z,27.8966,-93.5973,4.0,6.279697445,76.64937853,7.18,'11111222,11111222,11111222' 
TABS,ioos:station:wmo:42047:1,2011-03-03T16:00:00Z,27.8966,-93.5973,4.0,6.647179853,81.25999059,7.35,'11111222,11111222,11111222' 
TABS,ioos:station:wmo:42047:1,2011-03-03T16:30:00Z,27.8966,-93.5973,4.0,5.911683347,82.41776269,6.72,'11111222,11111222,11111222' 
TABS,ioos:station:wmo:42047:1,2011-03-03T17:00:00Z,27.8966,-93.5973,4.0,5.836248795,87.34798757,6.91,'11111222,11111222,11111222' 
TABS,ioos:station:wmo:42047:1,2011-03-03T17:30:00Z,27.8966,-93.5973,4.0,5.937078406,85.65269507,6.87,'11111222,11111222,11111222' 
TABS,ioos:station:wmo:42047:1,2011-03-03T18:00:00Z,27.8966,-93.5973,4.0,6.271562804,91.27953698,7.12,'11111222,11111222,11111222' 
TABS,ioos:station:wmo:42047:1,2011-03-03T18:30:00Z,27.8966,-93.5973,4.0,5.870545119,89.21876684,6.86,'11111222,11111222,11111222' 
TABS,ioos:station:wmo:42047:1,2011-03-03T19:00:00Z,27.8966,-93.5973,4.0,6.250647966,89.17457881,7.16,'11111222,11111222,11111222' 
TABS,ioos:station:wmo:42047:1,2011-03-03T19:30:00Z,27.8966,-93.5973,4.0,6.46198112,88.58078196,7.25,'11111222,11111222,11111222' 
TABS,ioos:station:wmo:42047:1,2011-03-03T20:00:00Z,27.8966,-93.5973,4.0,5.586161473,84.45229247,6.23,'11111222,11111222,11111222' 
TABS,ioos:station:wmo:42047:1,2011-03-03T20:30:00Z,27.8966,-93.5973,4.0,5.62317526,84.79593746,6.36,'11111222,11111222,11111222' 
TABS,ioos:station:wmo:42047:1,2011-03-03T21:00:00Z,27.8966,-93.5973,4.0,5.850136751,90.39217991,6.95,'11111222,11111222,11111222' 
TABS,ioos:station:wmo:42047:1,2011-03-03T21:30:00Z,27.8966,-93.5973,4.0,6.100401626,89.34211693,6.82,'11111222,11111222,11111222' 
TABS,ioos:station:wmo:42047:1,2011-03-03T22:00:00Z,27.8966,-93.5973,4.0,5.927596477,87.09856513,6.54,'11111222,11111222,11111222' 
TABS,ioos:station:wmo:42047:1,2011-03-04T00:00:00Z,27.8966,-93.5973,4.0,4.490901914,91.1487322,5.31,'11111222,11111222,11111222' 
TABS,ioos:station:wmo:42047:1,2011-03-04T00:30:00Z,27.8966,-93.5973,4.0,3.889730068,97.08888002,4.49,'11111222,11111222,11111222' 
TABS,ioos:station:wmo:42047:1,2011-03-04T01:00:00Z,27.8966,-93.5973,4.0,3.450014493,90.16649479,3.95,'11111222,11111222,11111222' 
TABS,ioos:station:wmo:42047:1,2011-03-04T01:30:00Z,27.8966,-93.5973,4.0,4.433926026,95.95530292,5.05,'11111222,11111222,11111222' 
TABS,ioos:station:wmo:42047:1,2011-03-04T02:00:00Z,27.8966,-93.5973,4.0,4.305647454,99.22207633,5.01,'11111222,11111222,11111222' 
TABS,ioos:station:wmo:42047:1,2011-03-04T02:30:00Z,27.8966,-93.5973,4.0,4.660815379,95.41743036,5.55,'11111222,11111222,11111222' 
TABS,ioos:station:wmo:42047:1,2011-03-04T03:00:00Z,27.8966,-93.5973,4.0,5.20586208,96.72953133,5.93,'11111222,11111222,11111222' 
TABS,ioos:station:wmo:42047:1,2011-03-04T03:30:00Z,27.8966,-93.5973,4.0,4.531710494,102.7486167,5.03,'11111222,11111222,11111222' 
TABS,ioos:station:wmo:42047:1,2011-03-04T04:00:00Z,27.8966,-93.5973,4.0,3.501156952,107.4520291,4.21,'11111222,11111222,11111222' 
TABS,ioos:station:wmo:42047:1,2011-03-04T04:30:00Z,27.8966,-93.5973,4.0,4.067284106,107.4552479,4.92,'11111222,11111222,11111222' 
TABS,ioos:station:wmo:42047:1,2011-03-04T05:00:00Z,27.8966,-93.5973,4.0,3.908055783,124.2596876,4.43,'11111222,11111222,11111222' 
TABS,ioos:station:wmo:42047:1,2011-03-04T05:30:00Z,27.8966,-93.5973,4.0,3.645517796,130.550479,4.13,'11111222,11111222,11111222' 
TABS,ioos:station:wmo:42047:1,2011-03-04T06:00:00Z,27.8966,-93.5973,4.0,4.296347286,139.1531082,5.05,'11111222,11111222,11111222' 
TABS,ioos:station:wmo:42047:1,2011-03-04T06:30:00Z,27.8966,-93.5973,4.0,4.54666911,142.1474202,5.48,'11111222,11111222,11111222' 
TABS,ioos:station:wmo:42047:1,2011-03-04T07:00:00Z,27.8966,-93.5973,4.0,3.445707475,133.0010741,4.1,'11111222,11111222,11111222' 
TABS,ioos:station:wmo:42047:1,2011-03-04T07:30:00Z,27.8966,-93.5973,4.0,3.919004976,123.9742499,4.48,'11111222,11111222,11111222' 
TABS,ioos:station:wmo:42047:1,2011-03-04T08:00:00Z,27.8966,-93.5973,4.0,3.871291774,132.5925935,4.43,'11111222,11111222,11111222' 
TABS,ioos:station:wmo:42047:1,2011-03-04T08:30:00Z,27.8966,-93.5973,4.0,3.487764327,140.4681677,4.38,'11111222,11111222,11111222' 
TABS,ioos:station:wmo:42047:1,2011-03-04T09:00:00Z,27.8966,-93.5973,4.0,3.982084881,142.7562992,4.6,'11111222,11111222,11111222' 
TABS,ioos:station:wmo:42047:1,2011-03-04T09:30:00Z,27.8966,-93.5973,4.0,3.856073132,136.9969699,4.56,'11111222,11111222,11111222' 
TABS,ioos:station:wmo:42047:1,2011-03-04T10:00:00Z,27.8966,-93.5973,4.0,4.083833983,137.4812443,5.64,'11111222,11111222,11111222' 
TABS,ioos:station:wmo:42047:1,2011-03-04T10:30:00Z,27.8966,-93.5973,4.0,4.739978903,146.008492,5.69,'11111222,11111222,11111222' 
TABS,ioos:station:wmo:42047:1,2011-03-04T11:00:00Z,27.8966,-93.5973,4.0,5.444859961,159.8013827,6.39,'11111222,11111222,11111222' 
TABS,ioos:station:wmo:42047:1,2011-03-04T11:30:00Z,27.8966,-93.5973,4.0,5.208886637,158.6073701,5.83,'11111222,11111222,11111222' 
TABS,ioos:station:wmo:42047:1,2011-03-04T12:00:00Z,27.8966,-93.5973,4.0,4.66480439,163.8186521,5.29,'11111222,11111222,11111222' 
TABS,ioos:station:wmo:42047:1,2011-03-04T12:30:00Z,27.8966,-93.5973,4.0,4.525229276,161.4451883,5.22,'11111222,11111222,11111222' 
TABS,ioos:station:wmo:42047:1,2011-03-04T13:00:00Z,27.8966,-93.5973,4.0,5.214642845,161.3220864,5.86,'11111222,11111222,11111222' 
TABS,ioos:station:wmo:42047:1,2011-03-04T13:30:00Z,27.8966,-93.5973,4.0,5.318740452,168.3945331,6.04,'11111222,11111222,11111222' 
TABS,ioos:station:wmo:42047:1,2011-03-04T14:00:00Z,27.8966,-93.5973,4.0,5.991201883,178.852538,7.19,'11111222,11111222,11111222' 
TABS,ioos:station:wmo:42047:1,2011-03-04T14:30:00Z,27.8966,-93.5973,4.0,6.270199359,179.5433171,7.33,'11111222,11111222,11111222' 
TABS,ioos:station:wmo:42047:1,2011-03-04T15:00:00Z,27.8966,-93.5973,4.0,6.916675502,176.0208373,8.03,'11111222,11111222,11111222' 
TABS,ioos:station:wmo:42047:1,2011-03-04T15:30:00Z,27.8966,-93.5973,4.0,6.495798642,173.1924834,7.14,'11111222,11111222,11111222' 
TABS,ioos:station:wmo:42047:1,2011-03-04T16:00:00Z,27.8966,-93.5973,4.0,5.619653014,166.3101929,6.41,'11111222,11111222,11111222' 
TABS,ioos:station:wmo:42047:1,2011-03-04T16:30:00Z,27.8966,-93.5973,4.0,6.234163938,172.4420247,6.99,'11111222,11111222,11111222' 
TABS,ioos:station:wmo:42047:1,2011-03-04T17:00:00Z,27.8966,-93.5973,4.0,6.026076667,174.668064,6.8,'11111222,11111222,11111222' 
TABS,ioos:station:wmo:42047:1,2011-03-04T17:30:00Z,27.8966,-93.5973,4.0,5.37175018,168.2928602,6.33,'11111222,11111222,11111222' 
TABS,ioos:station:wmo:42047:1,2011-03-04T18:00:00Z,27.8966,-93.5973,4.0,5.727128425,167.9054817,6.54,'11111222,11111222,11111222' 
TABS,ioos:station:wmo:42047:1,2011-03-04T18:30:00Z,27.8966,-93.5973,4.0,5.415874814,166.2205841,6.16,'11111222,11111222,11111222' 
TABS,ioos:station:wmo:42047:1,2011-03-04T19:00:00Z,27.8966,-93.5973,4.0,5.160862331,169.8443366,5.87,'11111222,11111222,11111222' 
TABS,ioos:station:wmo:42047:1,2011-03-04T19:30:00Z,27.8966,-93.5973,4.0,4.822654871,172.3741814,5.71,'11111222,11111222,11111222' 
TABS,ioos:station:wmo:42047:1,2011-03-04T20:00:00Z,27.8966,-93.5973,4.0,4.942721922,171.6242246,5.76,'11111222,11111222,11111222' 